owner,sensor,date,latitude,longitude,vertical_datum,wind_speed,wind_to_direction,wind_speed_of_gust,qcFlag 
TCOON,ioos:station:TCOON:009:1,2014-01-01T00:00:00Z,27.8398,-97.0727,0.0,3.0,348.0,3.8,'11111222,11111222,11111222' 
TCOON,ioos:station:TCOON:009:1,2014-01-01T00:06:00Z,27.8398,-97.0727,0.0,3.0,345.0,3.8,'1111122,1111122,1111122' 
TCOON,ioos:station:TCOON:009:1,2014-01-01T00:12:00Z,27.8398,-97.0727,0.0,2.3,358.0,3.2,'11111222,11111222,11111222' 
TCOON,ioos:station:TCOON:009:1,2014-01-01T00:18:00Z,27.8398,-97.0727,0.0,3.1,356.0,3.9,'11111222,11111222,11111222' 
TCOON,ioos:station:TCOON:009:1,2014-01-01T00:24:00Z,27.8398,-97.0727,0.0,3.5,359.0,4.2,'11111222,11111222,11111222' 
TCOON,ioos:station:TCOON:009:1,2014-01-01T00:30:00Z,27.8398,-97.0727,0.0,3.5,358.0,4.0,'11111222,11111222,11111222' 
TCOON,ioos:station:TCOON:009:1,2014-01-01T00:36:00Z,27.8398,-97.0727,0.0,3.5,353.0,4.1,'1111122,1111122,1111122' 
TCOON,ioos:station:TCOON:009:1,2014-01-01T00:42:00Z,27.8398,-97.0727,0.0,2.9,1.0,4.1,'11111222,11111222,11111222' 
TCOON,ioos:station:TCOON:009:1,2014-01-01T00:48:00Z,27.8398,-97.0727,0.0,3.0,356.0,3.6,'11111222,11111222,11111222' 
TCOON,ioos:station:TCOON:009:1,2014-01-01T00:54:00Z,27.8398,-97.0727,0.0,3.0,356.0,3.9,'11111222,11111222,11111222' 
TCOON,ioos:station:TCOON:009:1,2014-01-01T01:00:00Z,27.8398,-97.0727,0.0,2.6,354.0,3.4,'11111222,11111222,11111222' 
TCOON,ioos:station:TCOON:009:1,2014-01-01T01:06:00Z,27.8398,-97.0727,0.0,2.6,354.0,3.4,'1111122,1111122,1111122' 
TCOON,ioos:station:TCOON:009:1,2014-01-01T01:12:00Z,27.8398,-97.0727,0.0,3.1,355.0,3.8,'11111222,11111222,11111222' 
TCOON,ioos:station:TCOON:009:1,2014-01-01T01:18:00Z,27.8398,-97.0727,0.0,3.1,6.0,3.7,'11111222,11111222,11111222' 
TCOON,ioos:station:TCOON:009:1,2014-01-01T01:24:00Z,27.8398,-97.0727,0.0,3.2,12.0,3.9,'11111222,11111222,11111222' 
TCOON,ioos:station:TCOON:009:1,2014-01-01T01:30:00Z,27.8398,-97.0727,0.0,2.9,24.0,3.5,'11111222,11111222,11111222' 
TCOON,ioos:station:TCOON:009:1,2014-01-01T01:36:00Z,27.8398,-97.0727,0.0,2.9,22.0,3.6,'1111122,1111122,1111122' 
TCOON,ioos:station:TCOON:009:1,2014-01-01T01:42:00Z,27.8398,-97.0727,0.0,3.5,11.0,4.1,'11111222,11111222,11111222' 
TCOON,ioos:station:TCOON:009:1,2014-01-01T01:48:00Z,27.8398,-97.0727,0.0,4.2,12.0,5.1,'11111222,11111222,11111222' 
TCOON,ioos:station:TCOON:009:1,2014-01-01T01:54:00Z,27.8398,-97.0727,0.0,3.4,19.0,4.4,'11111222,11111222,11111222' 
TCOON,ioos:station:TCOON:009:1,2014-01-01T02:00:00Z,27.8398,-97.0727,0.0,3.2,16.0,4.3,'11111222,11111222,11111222' 
TCOON,ioos:station:TCOON:009:1,2014-01-01T02:06:00Z,27.8398,-97.0727,0.0,3.2,16.0,4.3,'1111122,1111122,1111122' 
TCOON,ioos:station:TCOON:009:1,2014-01-01T02:12:00Z,27.8398,-97.0727,0.0,2.9,357.0,3.8,'11111222,11111222,11111222' 
TCOON,ioos:station:TCOON:009:1,2014-01-01T02:18:00Z,27.8398,-97.0727,0.0,2.6,18.0,3.3,'11111222,11111222,11111222' 
TCOON,ioos:station:TCOON:009:1,2014-01-01T02:24:00Z,27.8398,-97.0727,0.0,3.6,42.0,4.1,'11111222,11111222,11111222' 
TCOON,ioos:station:TCOON:009:1,2014-01-01T02:30:00Z,27.8398,-97.0727,0.0,3.9,22.0,4.7,'11111222,11111222,11111222' 
TCOON,ioos:station:TCOON:009:1,2014-01-01T02:36:00Z,27.8398,-97.0727,0.0,3.9,22.0,4.7,'1111122,1111122,1111122' 
TCOON,ioos:station:TCOON:009:1,2014-01-01T02:42:00Z,27.8398,-97.0727,0.0,3.7,29.0,4.8,'11111222,11111222,11111222' 
TCOON,ioos:station:TCOON:009:1,2014-01-01T02:48:00Z,27.8398,-97.0727,0.0,4.3,45.0,4.9,'11111222,11111222,11111222' 
TCOON,ioos:station:TCOON:009:1,2014-01-01T02:54:00Z,27.8398,-97.0727,0.0,3.7,48.0,4.4,'11111222,11111222,11111222' 
TCOON,ioos:station:TCOON:009:1,2014-01-01T03:00:00Z,27.8398,-97.0727,0.0,3.7,48.0,4.4,'1111122,1111122,1111122' 
TCOON,ioos:station:TCOON:009:1,2014-01-01T03:06:00Z,27.8398,-97.0727,0.0,3.1,29.0,4.2,'11111222,11111222,11111222' 
TCOON,ioos:station:TCOON:009:1,2014-01-01T03:12:00Z,27.8398,-97.0727,0.0,3.2,31.0,3.8,'11111222,11111222,11111222' 
TCOON,ioos:station:TCOON:009:1,2014-01-01T03:18:00Z,27.8398,-97.0727,0.0,3.3,38.0,3.8,'11111222,11111222,11111222' 
TCOON,ioos:station:TCOON:009:1,2014-01-01T03:24:00Z,27.8398,-97.0727,0.0,2.2,20.0,3.5,'11111222,11111222,11111222' 
TCOON,ioos:station:TCOON:009:1,2014-01-01T03:30:00Z,27.8398,-97.0727,0.0,2.2,12.0,2.7,'11111222,11111222,11111222' 
TCOON,ioos:station:TCOON:009:1,2014-01-01T03:36:00Z,27.8398,-97.0727,0.0,2.2,10.0,2.7,'1111122,1111122,1111122' 
TCOON,ioos:station:TCOON:009:1,2014-01-01T03:42:00Z,27.8398,-97.0727,0.0,2.1,8.0,2.8,'11111222,11111222,11111222' 
TCOON,ioos:station:TCOON:009:1,2014-01-01T03:48:00Z,27.8398,-97.0727,0.0,1.8,22.0,2.7,'11111222,11111222,11111222' 
TCOON,ioos:station:TCOON:009:1,2014-01-01T03:54:00Z,27.8398,-97.0727,0.0,1.7,26.0,2.3,'11111222,11111222,11111222' 
TCOON,ioos:station:TCOON:009:1,2014-01-01T04:00:00Z,27.8398,-97.0727,0.0,1.8,3.0,2.2,'11111222,11111222,11111222' 
TCOON,ioos:station:TCOON:009:1,2014-01-01T04:06:00Z,27.8398,-97.0727,0.0,1.8,1.0,2.3,'1111122,1111122,1111122' 
TCOON,ioos:station:TCOON:009:1,2014-01-01T04:12:00Z,27.8398,-97.0727,0.0,1.7,351.0,2.2,'11111222,11111222,11111222' 
TCOON,ioos:station:TCOON:009:1,2014-01-01T04:18:00Z,27.8398,-97.0727,0.0,1.8,359.0,2.1,'11111222,11111222,11111222' 
TCOON,ioos:station:TCOON:009:1,2014-01-01T04:24:00Z,27.8398,-97.0727,0.0,1.5,359.0,2.0,'11111222,11111222,11111222' 
TCOON,ioos:station:TCOON:009:1,2014-01-01T04:30:00Z,27.8398,-97.0727,0.0,1.6,354.0,1.9,'11111222,11111222,11111222' 
TCOON,ioos:station:TCOON:009:1,2014-01-01T04:36:00Z,27.8398,-97.0727,0.0,1.6,348.0,2.0,'1111122,1111122,1111122' 
TCOON,ioos:station:TCOON:009:1,2014-01-01T04:42:00Z,27.8398,-97.0727,0.0,2.0,354.0,2.4,'11111222,11111222,11111222' 
TCOON,ioos:station:TCOON:009:1,2014-01-01T04:48:00Z,27.8398,-97.0727,0.0,2.0,348.0,2.5,'11111222,11111222,11111222' 
TCOON,ioos:station:TCOON:009:1,2014-01-01T04:54:00Z,27.8398,-97.0727,0.0,2.7,334.0,3.0,'11111222,11111222,11111222' 
TCOON,ioos:station:TCOON:009:1,2014-01-01T05:00:00Z,27.8398,-97.0727,0.0,2.6,330.0,3.2,'11111222,11111222,11111222' 
TCOON,ioos:station:TCOON:009:1,2014-01-01T05:06:00Z,27.8398,-97.0727,0.0,2.6,324.0,3.2,'1111122,1111122,1111122' 
TCOON,ioos:station:TCOON:009:1,2014-01-01T05:12:00Z,27.8398,-97.0727,0.0,2.1,340.0,2.6,'11111222,11111222,11111222' 
TCOON,ioos:station:TCOON:009:1,2014-01-01T05:18:00Z,27.8398,-97.0727,0.0,1.8,344.0,2.4,'11111222,11111222,11111222' 
TCOON,ioos:station:TCOON:009:1,2014-01-01T05:24:00Z,27.8398,-97.0727,0.0,1.6,345.0,2.3,'11111222,11111222,11111222' 
TCOON,ioos:station:TCOON:009:1,2014-01-01T05:30:00Z,27.8398,-97.0727,0.0,1.0,352.0,1.8,'11111222,11111222,11111222' 
TCOON,ioos:station:TCOON:009:1,2014-01-01T05:36:00Z,27.8398,-97.0727,0.0,1.0,347.0,1.8,'1111122,1111122,1111122' 
TCOON,ioos:station:TCOON:009:1,2014-01-01T05:42:00Z,27.8398,-97.0727,0.0,1.6,346.0,1.8,'11111222,11111222,11111222' 
TCOON,ioos:station:TCOON:009:1,2014-01-01T05:48:00Z,27.8398,-97.0727,0.0,1.9,353.0,2.1,'11111222,11111222,11111222' 
TCOON,ioos:station:TCOON:009:1,2014-01-01T05:54:00Z,27.8398,-97.0727,0.0,1.8,352.0,2.6,'11111222,11111222,11111222' 
TCOON,ioos:station:TCOON:009:1,2014-01-01T06:00:00Z,27.8398,-97.0727,0.0,1.9,1.0,2.3,'11111222,11111222,11111222' 
TCOON,ioos:station:TCOON:009:1,2014-01-01T06:06:00Z,27.8398,-97.0727,0.0,1.9,1.0,2.3,'1111122,1111122,1111122' 
TCOON,ioos:station:TCOON:009:1,2014-01-01T06:12:00Z,27.8398,-97.0727,0.0,2.3,12.0,2.9,'11111222,11111222,11111222' 
TCOON,ioos:station:TCOON:009:1,2014-01-01T06:18:00Z,27.8398,-97.0727,0.0,2.4,3.0,3.0,'11111222,11111222,11111222' 
TCOON,ioos:station:TCOON:009:1,2014-01-01T06:24:00Z,27.8398,-97.0727,0.0,2.1,349.0,2.9,'11111222,11111222,11111222' 
TCOON,ioos:station:TCOON:009:1,2014-01-01T06:30:00Z,27.8398,-97.0727,0.0,2.5,350.0,2.7,'11111222,11111222,11111222' 
TCOON,ioos:station:TCOON:009:1,2014-01-01T06:36:00Z,27.8398,-97.0727,0.0,2.5,344.0,2.7,'1111122,1111122,1111122' 
TCOON,ioos:station:TCOON:009:1,2014-01-01T06:42:00Z,27.8398,-97.0727,0.0,2.8,333.0,3.4,'11111222,11111222,11111222' 
TCOON,ioos:station:TCOON:009:1,2014-01-01T06:48:00Z,27.8398,-97.0727,0.0,3.0,345.0,3.6,'11111222,11111222,11111222' 
TCOON,ioos:station:TCOON:009:1,2014-01-01T06:54:00Z,27.8398,-97.0727,0.0,2.8,335.0,3.6,'11111222,11111222,11111222' 
TCOON,ioos:station:TCOON:009:1,2014-01-01T07:00:00Z,27.8398,-97.0727,0.0,2.4,352.0,3.1,'11111222,11111222,11111222' 
TCOON,ioos:station:TCOON:009:1,2014-01-01T07:06:00Z,27.8398,-97.0727,0.0,2.4,347.0,3.1,'1111122,1111122,1111122' 
TCOON,ioos:station:TCOON:009:1,2014-01-01T07:12:00Z,27.8398,-97.0727,0.0,2.3,339.0,3.0,'11111222,11111222,11111222' 
TCOON,ioos:station:TCOON:009:1,2014-01-01T07:18:00Z,27.8398,-97.0727,0.0,1.8,348.0,2.6,'11111222,11111222,11111222' 
TCOON,ioos:station:TCOON:009:1,2014-01-01T07:24:00Z,27.8398,-97.0727,0.0,2.2,322.0,2.6,'11111222,11111222,11111222' 
TCOON,ioos:station:TCOON:009:1,2014-01-01T07:30:00Z,27.8398,-97.0727,0.0,2.3,333.0,3.0,'11111222,11111222,11111222' 
TCOON,ioos:station:TCOON:009:1,2014-01-01T07:36:00Z,27.8398,-97.0727,0.0,2.3,328.0,2.8,'1111122,1111122,1111122' 
TCOON,ioos:station:TCOON:009:1,2014-01-01T07:42:00Z,27.8398,-97.0727,0.0,2.0,332.0,2.4,'11111222,11111222,11111222' 
TCOON,ioos:station:TCOON:009:1,2014-01-01T07:48:00Z,27.8398,-97.0727,0.0,2.1,341.0,2.9,'11111222,11111222,11111222' 
TCOON,ioos:station:TCOON:009:1,2014-01-01T07:54:00Z,27.8398,-97.0727,0.0,2.8,337.0,3.3,'11111222,11111222,11111222' 
TCOON,ioos:station:TCOON:009:1,2014-01-01T08:00:00Z,27.8398,-97.0727,0.0,3.6,331.0,4.3,'11111222,11111222,11111222' 
TCOON,ioos:station:TCOON:009:1,2014-01-01T08:06:00Z,27.8398,-97.0727,0.0,3.6,325.0,4.3,'1111122,1111122,1111122' 
TCOON,ioos:station:TCOON:009:1,2014-01-01T08:12:00Z,27.8398,-97.0727,0.0,2.1,324.0,4.0,'11111222,11111222,11111222' 
TCOON,ioos:station:TCOON:009:1,2014-01-01T08:18:00Z,27.8398,-97.0727,0.0,3.3,331.0,3.9,'11111222,11111222,11111222' 
TCOON,ioos:station:TCOON:009:1,2014-01-01T08:24:00Z,27.8398,-97.0727,0.0,4.0,335.0,4.9,'11111222,11111222,11111222' 
TCOON,ioos:station:TCOON:009:1,2014-01-01T08:30:00Z,27.8398,-97.0727,0.0,4.3,331.0,4.8,'11111222,11111222,11111222' 
TCOON,ioos:station:TCOON:009:1,2014-01-01T08:36:00Z,27.8398,-97.0727,0.0,4.3,325.0,4.8,'1111122,1111122,1111122' 
TCOON,ioos:station:TCOON:009:1,2014-01-01T08:42:00Z,27.8398,-97.0727,0.0,3.1,335.0,3.6,'11111222,11111222,11111222' 
TCOON,ioos:station:TCOON:009:1,2014-01-01T08:48:00Z,27.8398,-97.0727,0.0,3.1,324.0,3.8,'11111222,11111222,11111222' 
TCOON,ioos:station:TCOON:009:1,2014-01-01T08:54:00Z,27.8398,-97.0727,0.0,3.2,332.0,4.3,'11111222,11111222,11111222' 
TCOON,ioos:station:TCOON:009:1,2014-01-01T09:00:00Z,27.8398,-97.0727,0.0,3.1,332.0,3.8,'11111222,11111222,11111222' 
TCOON,ioos:station:TCOON:009:1,2014-01-01T09:06:00Z,27.8398,-97.0727,0.0,3.1,326.0,3.8,'1111122,1111122,1111122' 
TCOON,ioos:station:TCOON:009:1,2014-01-01T09:12:00Z,27.8398,-97.0727,0.0,2.6,332.0,3.8,'11111222,11111222,11111222' 
TCOON,ioos:station:TCOON:009:1,2014-01-01T09:18:00Z,27.8398,-97.0727,0.0,3.0,340.0,4.3,'11111222,11111222,11111222' 
TCOON,ioos:station:TCOON:009:1,2014-01-01T09:24:00Z,27.8398,-97.0727,0.0,3.3,334.0,4.5,'11111222,11111222,11111222' 
TCOON,ioos:station:TCOON:009:1,2014-01-01T09:30:00Z,27.8398,-97.0727,0.0,3.3,332.0,4.2,'11111222,11111222,11111222' 
TCOON,ioos:station:TCOON:009:1,2014-01-01T09:36:00Z,27.8398,-97.0727,0.0,3.3,326.0,4.2,'1111122,1111122,1111122' 
TCOON,ioos:station:TCOON:009:1,2014-01-01T09:42:00Z,27.8398,-97.0727,0.0,3.2,336.0,3.9,'11111222,11111222,11111222' 
TCOON,ioos:station:TCOON:009:1,2014-01-01T09:48:00Z,27.8398,-97.0727,0.0,2.9,343.0,3.5,'11111222,11111222,11111222' 
TCOON,ioos:station:TCOON:009:1,2014-01-01T09:54:00Z,27.8398,-97.0727,0.0,2.7,345.0,3.8,'11111222,11111222,11111222' 
TCOON,ioos:station:TCOON:009:1,2014-01-01T10:00:00Z,27.8398,-97.0727,0.0,3.3,333.0,4.1,'11111222,11111222,11111222' 
TCOON,ioos:station:TCOON:009:1,2014-01-01T10:06:00Z,27.8398,-97.0727,0.0,3.3,327.0,4.0,'1111122,1111122,1111122' 
TCOON,ioos:station:TCOON:009:1,2014-01-01T10:12:00Z,27.8398,-97.0727,0.0,3.5,335.0,4.1,'11111222,11111222,11111222' 
TCOON,ioos:station:TCOON:009:1,2014-01-01T10:18:00Z,27.8398,-97.0727,0.0,3.1,336.0,4.0,'11111222,11111222,11111222' 
TCOON,ioos:station:TCOON:009:1,2014-01-01T10:24:00Z,27.8398,-97.0727,0.0,3.0,341.0,4.0,'11111222,11111222,11111222' 
TCOON,ioos:station:TCOON:009:1,2014-01-01T10:30:00Z,27.8398,-97.0727,0.0,3.3,343.0,3.8,'11111222,11111222,11111222' 
TCOON,ioos:station:TCOON:009:1,2014-01-01T10:36:00Z,27.8398,-97.0727,0.0,3.2,338.0,3.8,'1111122,1111122,1111122' 
TCOON,ioos:station:TCOON:009:1,2014-01-01T10:42:00Z,27.8398,-97.0727,0.0,2.8,344.0,4.0,'11111222,11111222,11111222' 
TCOON,ioos:station:TCOON:009:1,2014-01-01T10:48:00Z,27.8398,-97.0727,0.0,3.1,330.0,3.9,'11111222,11111222,11111222' 
TCOON,ioos:station:TCOON:009:1,2014-01-01T10:54:00Z,27.8398,-97.0727,0.0,3.2,334.0,3.7,'11111222,11111222,11111222' 
TCOON,ioos:station:TCOON:009:1,2014-01-01T11:00:00Z,27.8398,-97.0727,0.0,3.2,333.0,3.8,'11111222,11111222,11111222' 
TCOON,ioos:station:TCOON:009:1,2014-01-01T11:06:00Z,27.8398,-97.0727,0.0,3.2,328.0,3.8,'1111122,1111122,1111122' 
TCOON,ioos:station:TCOON:009:1,2014-01-01T11:12:00Z,27.8398,-97.0727,0.0,3.3,343.0,4.1,'11111222,11111222,11111222' 
TCOON,ioos:station:TCOON:009:1,2014-01-01T11:18:00Z,27.8398,-97.0727,0.0,2.9,345.0,4.0,'11111222,11111222,11111222' 
TCOON,ioos:station:TCOON:009:1,2014-01-01T11:24:00Z,27.8398,-97.0727,0.0,3.5,337.0,4.5,'11111222,11111222,11111222' 
TCOON,ioos:station:TCOON:009:1,2014-01-01T11:30:00Z,27.8398,-97.0727,0.0,3.7,332.0,4.8,'11111222,11111222,11111222' 
TCOON,ioos:station:TCOON:009:1,2014-01-01T11:36:00Z,27.8398,-97.0727,0.0,3.7,326.0,4.7,'1111122,1111122,1111122' 
TCOON,ioos:station:TCOON:009:1,2014-01-01T11:42:00Z,27.8398,-97.0727,0.0,4.0,330.0,4.9,'11111222,11111222,11111222' 
TCOON,ioos:station:TCOON:009:1,2014-01-01T11:48:00Z,27.8398,-97.0727,0.0,4.0,331.0,4.9,'11111222,11111222,11111222' 
TCOON,ioos:station:TCOON:009:1,2014-01-01T11:54:00Z,27.8398,-97.0727,0.0,3.7,341.0,5.1,'11111222,11111222,11111222' 
TCOON,ioos:station:TCOON:009:1,2014-01-01T12:00:00Z,27.8398,-97.0727,0.0,3.9,338.0,4.8,'11111222,11111222,11111222' 
TCOON,ioos:station:TCOON:009:1,2014-01-01T12:06:00Z,27.8398,-97.0727,0.0,3.9,338.0,4.8,'1111122,1111122,1111122' 
TCOON,ioos:station:TCOON:009:1,2014-01-01T12:12:00Z,27.8398,-97.0727,0.0,3.0,345.0,4.6,'11111222,11111222,11111222' 
TCOON,ioos:station:TCOON:009:1,2014-01-01T12:18:00Z,27.8398,-97.0727,0.0,3.2,348.0,4.3,'11111222,11111222,11111222' 
TCOON,ioos:station:TCOON:009:1,2014-01-01T12:24:00Z,27.8398,-97.0727,0.0,3.0,343.0,4.3,'11111222,11111222,11111222' 
TCOON,ioos:station:TCOON:009:1,2014-01-01T12:30:00Z,27.8398,-97.0727,0.0,2.7,349.0,4.1,'11111222,11111222,11111222' 
TCOON,ioos:station:TCOON:009:1,2014-01-01T12:36:00Z,27.8398,-97.0727,0.0,2.7,343.0,3.9,'1111122,1111122,1111122' 
TCOON,ioos:station:TCOON:009:1,2014-01-01T12:42:00Z,27.8398,-97.0727,0.0,3.6,334.0,4.5,'11111222,11111222,11111222' 
TCOON,ioos:station:TCOON:009:1,2014-01-01T12:48:00Z,27.8398,-97.0727,0.0,3.4,337.0,4.5,'11111222,11111222,11111222' 
TCOON,ioos:station:TCOON:009:1,2014-01-01T12:54:00Z,27.8398,-97.0727,0.0,3.2,334.0,4.2,'11111222,11111222,11111222' 
TCOON,ioos:station:TCOON:009:1,2014-01-01T13:00:00Z,27.8398,-97.0727,0.0,3.3,341.0,4.6,'11111222,11111222,11111222' 
TCOON,ioos:station:TCOON:009:1,2014-01-01T13:06:00Z,27.8398,-97.0727,0.0,3.3,335.0,4.6,'1111122,1111122,1111122' 
TCOON,ioos:station:TCOON:009:1,2014-01-01T13:12:00Z,27.8398,-97.0727,0.0,3.3,333.0,4.0,'11111222,11111222,11111222' 
TCOON,ioos:station:TCOON:009:1,2014-01-01T13:18:00Z,27.8398,-97.0727,0.0,2.7,337.0,3.3,'11111222,11111222,11111222' 
TCOON,ioos:station:TCOON:009:1,2014-01-01T13:24:00Z,27.8398,-97.0727,0.0,3.3,333.0,3.8,'11111222,11111222,11111222' 
TCOON,ioos:station:TCOON:009:1,2014-01-01T13:30:00Z,27.8398,-97.0727,0.0,2.9,322.0,3.4,'11111222,11111222,11111222' 
TCOON,ioos:station:TCOON:009:1,2014-01-01T13:36:00Z,27.8398,-97.0727,0.0,2.9,322.0,3.4,'1111122,1111122,1111122' 
TCOON,ioos:station:TCOON:009:1,2014-01-01T13:42:00Z,27.8398,-97.0727,0.0,3.1,342.0,3.5,'11111222,11111222,11111222' 
TCOON,ioos:station:TCOON:009:1,2014-01-01T13:48:00Z,27.8398,-97.0727,0.0,3.5,334.0,3.9,'11111222,11111222,11111222' 
TCOON,ioos:station:TCOON:009:1,2014-01-01T13:54:00Z,27.8398,-97.0727,0.0,3.7,343.0,4.6,'11111222,11111222,11111222' 
TCOON,ioos:station:TCOON:009:1,2014-01-01T14:00:00Z,27.8398,-97.0727,0.0,3.4,334.0,4.3,'11111222,11111222,11111222' 
TCOON,ioos:station:TCOON:009:1,2014-01-01T14:06:00Z,27.8398,-97.0727,0.0,3.4,329.0,4.3,'1111122,1111122,1111122' 
TCOON,ioos:station:TCOON:009:1,2014-01-01T14:12:00Z,27.8398,-97.0727,0.0,3.4,338.0,4.6,'11111222,11111222,11111222' 
TCOON,ioos:station:TCOON:009:1,2014-01-01T14:18:00Z,27.8398,-97.0727,0.0,3.0,342.0,3.9,'11111222,11111222,11111222' 
TCOON,ioos:station:TCOON:009:1,2014-01-01T14:24:00Z,27.8398,-97.0727,0.0,3.4,347.0,4.4,'11111222,11111222,11111222' 
TCOON,ioos:station:TCOON:009:1,2014-01-01T14:30:00Z,27.8398,-97.0727,0.0,3.2,330.0,3.8,'11111222,11111222,11111222' 
TCOON,ioos:station:TCOON:009:1,2014-01-01T14:36:00Z,27.8398,-97.0727,0.0,3.2,325.0,3.7,'1111122,1111122,1111122' 
TCOON,ioos:station:TCOON:009:1,2014-01-01T14:42:00Z,27.8398,-97.0727,0.0,2.7,345.0,3.7,'11111222,11111222,11111222' 
TCOON,ioos:station:TCOON:009:1,2014-01-01T14:48:00Z,27.8398,-97.0727,0.0,2.9,345.0,3.4,'11111222,11111222,11111222' 
TCOON,ioos:station:TCOON:009:1,2014-01-01T14:54:00Z,27.8398,-97.0727,0.0,2.9,346.0,4.2,'11111222,11111222,11111222' 
TCOON,ioos:station:TCOON:009:1,2014-01-01T15:00:00Z,27.8398,-97.0727,0.0,3.1,346.0,3.9,'11111222,11111222,11111222' 
TCOON,ioos:station:TCOON:009:1,2014-01-01T15:06:00Z,27.8398,-97.0727,0.0,3.1,346.0,3.9,'1111122,1111122,1111122' 
TCOON,ioos:station:TCOON:009:1,2014-01-01T15:12:00Z,27.8398,-97.0727,0.0,3.2,348.0,3.8,'11111222,11111222,11111222' 
TCOON,ioos:station:TCOON:009:1,2014-01-01T15:18:00Z,27.8398,-97.0727,0.0,3.2,344.0,4.1,'11111222,11111222,11111222' 
TCOON,ioos:station:TCOON:009:1,2014-01-01T15:24:00Z,27.8398,-97.0727,0.0,3.3,345.0,3.8,'11111222,11111222,11111222' 
TCOON,ioos:station:TCOON:009:1,2014-01-01T15:30:00Z,27.8398,-97.0727,0.0,3.3,352.0,3.8,'11111222,11111222,11111222' 
TCOON,ioos:station:TCOON:009:1,2014-01-01T15:36:00Z,27.8398,-97.0727,0.0,3.3,348.0,3.8,'1111122,1111122,1111122' 
TCOON,ioos:station:TCOON:009:1,2014-01-01T15:42:00Z,27.8398,-97.0727,0.0,2.8,344.0,3.8,'11111222,11111222,11111222' 
TCOON,ioos:station:TCOON:009:1,2014-01-01T15:48:00Z,27.8398,-97.0727,0.0,2.5,355.0,3.5,'11111222,11111222,11111222' 
TCOON,ioos:station:TCOON:009:1,2014-01-01T15:54:00Z,27.8398,-97.0727,0.0,2.2,347.0,3.2,'11111222,11111222,11111222' 
TCOON,ioos:station:TCOON:009:1,2014-01-01T16:00:00Z,27.8398,-97.0727,0.0,2.8,341.0,3.6,'11111222,11111222,11111222' 
TCOON,ioos:station:TCOON:009:1,2014-01-01T16:06:00Z,27.8398,-97.0727,0.0,2.8,335.0,3.6,'1111122,1111122,1111122' 
TCOON,ioos:station:TCOON:009:1,2014-01-01T16:12:00Z,27.8398,-97.0727,0.0,2.7,334.0,3.5,'11111222,11111222,11111222' 
TCOON,ioos:station:TCOON:009:1,2014-01-01T16:18:00Z,27.8398,-97.0727,0.0,2.8,344.0,3.3,'11111222,11111222,11111222' 
TCOON,ioos:station:TCOON:009:1,2014-01-01T16:24:00Z,27.8398,-97.0727,0.0,2.9,344.0,3.5,'11111222,11111222,11111222' 
TCOON,ioos:station:TCOON:009:1,2014-01-01T16:30:00Z,27.8398,-97.0727,0.0,2.1,348.0,2.8,'11111222,11111222,11111222' 
TCOON,ioos:station:TCOON:009:1,2014-01-01T16:36:00Z,27.8398,-97.0727,0.0,2.1,343.0,2.8,'1111122,1111122,1111122' 
TCOON,ioos:station:TCOON:009:1,2014-01-01T16:42:00Z,27.8398,-97.0727,0.0,2.6,333.0,3.1,'11111222,11111222,11111222' 
TCOON,ioos:station:TCOON:009:1,2014-01-01T16:48:00Z,27.8398,-97.0727,0.0,2.0,354.0,3.1,'11111222,11111222,11111222' 
TCOON,ioos:station:TCOON:009:1,2014-01-01T16:54:00Z,27.8398,-97.0727,0.0,2.3,346.0,3.2,'11111222,11111222,11111222' 
TCOON,ioos:station:TCOON:009:1,2014-01-01T17:00:00Z,27.8398,-97.0727,0.0,2.5,339.0,3.1,'11111222,11111222,11111222' 
TCOON,ioos:station:TCOON:009:1,2014-01-01T17:06:00Z,27.8398,-97.0727,0.0,2.5,334.0,3.1,'1111122,1111122,1111122' 
TCOON,ioos:station:TCOON:009:1,2014-01-01T17:12:00Z,27.8398,-97.0727,0.0,2.4,330.0,3.0,'11111222,11111222,11111222' 
TCOON,ioos:station:TCOON:009:1,2014-01-01T17:18:00Z,27.8398,-97.0727,0.0,2.2,343.0,2.9,'11111222,11111222,11111222' 
TCOON,ioos:station:TCOON:009:1,2014-01-01T17:24:00Z,27.8398,-97.0727,0.0,2.4,340.0,2.7,'11111222,11111222,11111222' 
TCOON,ioos:station:TCOON:009:1,2014-01-01T17:30:00Z,27.8398,-97.0727,0.0,2.5,341.0,3.2,'11111222,11111222,11111222' 
TCOON,ioos:station:TCOON:009:1,2014-01-01T17:36:00Z,27.8398,-97.0727,0.0,2.5,336.0,3.2,'1111122,1111122,1111122' 
TCOON,ioos:station:TCOON:009:1,2014-01-01T17:42:00Z,27.8398,-97.0727,0.0,2.0,344.0,2.6,'11111222,11111222,11111222' 
TCOON,ioos:station:TCOON:009:1,2014-01-01T17:48:00Z,27.8398,-97.0727,0.0,2.0,346.0,2.5,'11111222,11111222,11111222' 
TCOON,ioos:station:TCOON:009:1,2014-01-01T17:54:00Z,27.8398,-97.0727,0.0,2.0,338.0,2.6,'11111222,11111222,11111222' 
TCOON,ioos:station:TCOON:009:1,2014-01-01T18:00:00Z,27.8398,-97.0727,0.0,1.5,327.0,2.2,'11111222,11111222,11111222' 
TCOON,ioos:station:TCOON:009:1,2014-01-01T18:06:00Z,27.8398,-97.0727,0.0,1.5,322.0,2.2,'1111122,1111122,1111122' 
TCOON,ioos:station:TCOON:009:1,2014-01-01T18:12:00Z,27.8398,-97.0727,0.0,1.9,315.0,2.2,'11111222,11111222,11111222' 
TCOON,ioos:station:TCOON:009:1,2014-01-01T18:18:00Z,27.8398,-97.0727,0.0,2.1,312.0,2.3,'11111222,11111222,11111222' 
TCOON,ioos:station:TCOON:009:1,2014-01-01T18:24:00Z,27.8398,-97.0727,0.0,1.5,329.0,2.2,'11111222,11111222,11111222' 
TCOON,ioos:station:TCOON:009:1,2014-01-01T18:30:00Z,27.8398,-97.0727,0.0,1.7,324.0,2.3,'11111222,11111222,11111222' 
TCOON,ioos:station:TCOON:009:1,2014-01-01T18:36:00Z,27.8398,-97.0727,0.0,1.7,319.0,2.3,'1111122,1111122,1111122' 
TCOON,ioos:station:TCOON:009:1,2014-01-01T18:42:00Z,27.8398,-97.0727,0.0,2.6,316.0,2.9,'11111222,11111222,11111222' 
TCOON,ioos:station:TCOON:009:1,2014-01-01T18:48:00Z,27.8398,-97.0727,0.0,2.5,332.0,3.1,'11111222,11111222,11111222' 
TCOON,ioos:station:TCOON:009:1,2014-01-01T18:54:00Z,27.8398,-97.0727,0.0,1.4,349.0,2.6,'11111222,11111222,11111222' 
TCOON,ioos:station:TCOON:009:1,2014-01-01T19:00:00Z,27.8398,-97.0727,0.0,1.7,326.0,2.4,'11111222,11111222,11111222' 
TCOON,ioos:station:TCOON:009:1,2014-01-01T19:06:00Z,27.8398,-97.0727,0.0,1.7,322.0,2.4,'1111122,1111122,1111122' 
TCOON,ioos:station:TCOON:009:1,2014-01-01T19:12:00Z,27.8398,-97.0727,0.0,2.5,324.0,2.9,'11111222,11111222,11111222' 
TCOON,ioos:station:TCOON:009:1,2014-01-01T19:18:00Z,27.8398,-97.0727,0.0,2.4,328.0,2.9,'11111222,11111222,11111222' 
TCOON,ioos:station:TCOON:009:1,2014-01-01T19:24:00Z,27.8398,-97.0727,0.0,2.4,340.0,3.1,'11111222,11111222,11111222' 
TCOON,ioos:station:TCOON:009:1,2014-01-01T19:30:00Z,27.8398,-97.0727,0.0,2.2,337.0,3.1,'11111222,11111222,11111222' 
TCOON,ioos:station:TCOON:009:1,2014-01-01T19:36:00Z,27.8398,-97.0727,0.0,2.2,337.0,3.1,'1111122,1111122,1111122' 
TCOON,ioos:station:TCOON:009:1,2014-01-01T19:42:00Z,27.8398,-97.0727,0.0,2.0,313.0,2.3,'11111222,11111222,11111222' 
TCOON,ioos:station:TCOON:009:1,2014-01-01T19:48:00Z,27.8398,-97.0727,0.0,2.0,310.0,2.4,'11111222,11111222,11111222' 
TCOON,ioos:station:TCOON:009:1,2014-01-01T19:54:00Z,27.8398,-97.0727,0.0,2.2,316.0,2.3,'11111222,11111222,11111222' 
TCOON,ioos:station:TCOON:009:1,2014-01-01T20:00:00Z,27.8398,-97.0727,0.0,2.2,326.0,2.5,'11111222,11111222,11111222' 
TCOON,ioos:station:TCOON:009:1,2014-01-01T20:06:00Z,27.8398,-97.0727,0.0,2.2,321.0,2.5,'1111122,1111122,1111122' 
TCOON,ioos:station:TCOON:009:1,2014-01-01T20:12:00Z,27.8398,-97.0727,0.0,1.8,312.0,2.3,'11111222,11111222,11111222' 
TCOON,ioos:station:TCOON:009:1,2014-01-01T20:18:00Z,27.8398,-97.0727,0.0,1.6,338.0,2.1,'11111222,11111222,11111222' 
TCOON,ioos:station:TCOON:009:1,2014-01-01T20:24:00Z,27.8398,-97.0727,0.0,1.7,334.0,2.1,'11111222,11111222,11111222' 